| time (UTC) | temp C | wind direction | speed KPH | gust KPH | rain 1hr cm | rain 24hr cm | rain mn cm | humidity % | barometer mb |
| 20260906081515 | 20 | 0.0 | 0.0 | 0.00 | 0.00 | 0.00 | 83 | 1014.9 | |
| 20260906080515 | 20 | 0.0 | 0.0 | 0.00 | 0.00 | 0.00 | 84 | 1014.8 | |
| 20260906075515 | 20 | 0.0 | 0.0 | 0.00 | 0.00 | 0.00 | 84 | 1014.5 | |
| 20260906074515 | 20 | 0.0 | 0.0 | 0.00 | 0.00 | 0.00 | 85 | 1014.5 | |
| 20260906073515 | 20 | 0.0 | 0.0 | 0.00 | 0.00 | 0.00 | 85 | 1014.6 | |
| 20260906072515 | 21 | 0.0 | 0.0 | 0.00 | 0.00 | 0.00 | 85 | 1014.7 | |
| 20260906071515 | 21 | 0.0 | 0.0 | 0.00 | 0.00 | 0.00 | 85 | 1014.7 | |
| 20260906070535 | 21 | 0.0 | 0.0 | 0.00 | 0.00 | 0.00 | 85 | 1014.7 | |
| 20260906065515 | 21 | 0.0 | 0.0 | 0.00 | 0.00 | 0.00 | 85 | 1014.7 | |
| 20260906064515 | 21 | 0.0 | 1.6 | 0.00 | 0.00 | 0.00 | 85 | 1014.8 | |
| 20260906063535 | 21 | 0.0 | 0.0 | 0.00 | 0.00 | 0.00 | 86 | 1015.0 | |
| 20260906062515 | 21 | 0.0 | 0.0 | 0.00 | 0.00 | 0.00 | 86 | 1015.1 | |
| 20260906061558 | 21 | 0.0 | 0.0 | 0.00 | 0.00 | 0.00 | 87 | 1015.2 | |
| 20260906060517 | 21 | 0.0 | 0.0 | 0.00 | 0.00 | 0.00 | 87 | 1015.5 | |
| 20260906055515 | 21 | 0.0 | 0.0 | 0.00 | 0.00 | 0.00 | 88 | 1016.0 | |
| 20260906054517 | 21 | 0.0 | 0.0 | 0.00 | 0.00 | 0.00 | 88 | 1015.9 | |
| 20260906053515 | 21 | 0.0 | 0.0 | 0.00 | 0.00 | 0.00 | 88 | 1015.9 | |
| 20260906052517 | 21 | 0.0 | 0.0 | 0.00 | 0.00 | 0.00 | 89 | 1016.4 | |
| 20260906051538 | 22 | 0.0 | 0.0 | 0.00 | 0.00 | 0.00 | 89 | 1016.5 | |
| 20260906050517 | 22 | 0.0 | 0.0 | 0.00 | 0.00 | 0.00 | 89 | 1016.6 | |
| 20260906045517 | 22 | 0.0 | 1.6 | 0.00 | 0.00 | 0.00 | 89 | 1016.5 | |
| 20260906044517 | 22 | 0.0 | 0.0 | 0.00 | 0.00 | 0.00 | 89 | 1016.7 | |
| 20260906043517 | 22 | 0.0 | 0.0 | 0.00 | 0.00 | 0.00 | 89 | 1016.7 | |
| 20260906042517 | 22 | 0.0 | 0.0 | 0.00 | 0.00 | 0.00 | 89 | 1016.4 | |
| 20260906041517 | 22 | 0.0 | 0.0 | 0.00 | 0.00 | 0.00 | 89 | 1016.6 | |
| 20260906040517 | 22 | 0.0 | 1.6 | 0.00 | 0.00 | 0.00 | 89 | 1016.6 | |
| 20260906035515 | 22 | 0.0 | 0.0 | 0.00 | 0.00 | 0.00 | 89 | 1016.5 | |
| 20260906034537 | 22 | 0.0 | 0.0 | 0.00 | 0.00 | 0.00 | 89 | 1016.7 | |
| 20260906033517 | 22 | 0.0 | 0.0 | 0.00 | 0.00 | 0.00 | 89 | 1016.9 | |
| 20260906032517 | 22 | 0.0 | 0.0 | 0.00 | 0.00 | 0.00 | 89 | 1016.8 | |
| 20260906031517 | 23 | 0.0 | 0.0 | 0.00 | 0.00 | 0.00 | 89 | 1017.1 | |
| 20260906030517 | 23 | 0.0 | 0.0 | 0.00 | 0.00 | 0.00 | 89 | 1017.1 | |
| 20260906025517 | 23 | 0.0 | 0.0 | 0.00 | 0.00 | 0.00 | 89 | 1016.9 | |
| 20260906024517 | 23 | 0.0 | 0.0 | 0.00 | 0.00 | 0.00 | 88 | 1016.7 | |
| 20260906023517 | 23 | 0.0 | 0.0 | 0.00 | 0.00 | 0.00 | 88 | 1016.7 | |
| 20260906022517 | 23 | 0.0 | 0.0 | 0.00 | 0.00 | 0.00 | 88 | 1016.4 | |
| 20260906021517 | 23 | 0.0 | 0.0 | 0.00 | 0.00 | 0.00 | 88 | 1016.2 | |
| 20260906020517 | 23 | 0.0 | 0.0 | 0.00 | 0.00 | 0.00 | 87 | 1016.1 | |
| 20260906015517 | 23 | 0.0 | 0.0 | 0.00 | 0.00 | 0.00 | 86 | 1015.6 | |
| 20260906014517 | 23 | 0.0 | 0.0 | 0.00 | 0.00 | 0.00 | 86 | 1015.7 | |
| 20260906013517 | 24 | 0.0 | 0.0 | 0.00 | 0.00 | 0.00 | 85 | 1015.7 | |
| 20260906012517 | 24 | 0.0 | 0.0 | 0.00 | 0.00 | 0.00 | 85 | 1015.7 | |
| 20260906011517 | 24 | 0.0 | 0.0 | 0.00 | 0.00 | 0.00 | 84 | 1015.5 | |
| 20260906010557 | 24 | 0.0 | 0.0 | 0.00 | 0.00 | 0.00 | 84 | 1015.3 | |
| 20260906005517 | 25 | 0.0 | 0.0 | 0.00 | 0.00 | 0.00 | 84 | 1015.3 | |
| 20260906004517 | 25 | 0.0 | 0.0 | 0.00 | 0.00 | 0.00 | 83 | 1015.2 | |
| 20260906003537 | 25 | 0.0 | 0.0 | 0.00 | 0.00 | 0.00 | 83 | 1015.1 | |
| 20260906002537 | 25 | 0.0 | 0.0 | 0.00 | 0.00 | 0.00 | 83 | 1014.9 | |
| 20260906001517 | 25 | 0.0 | 0.0 | 0.00 | 0.00 | 0.00 | 82 | 1014.9 | |
| 20260906000517 | 25 | 0.0 | 0.0 | 0.00 | 0.00 | 0.00 | 81 | 1014.9 | |
| 20260905235517 | 26 | 0.0 | 0.0 | 0.00 | 0.00 | 0.00 | 80 | 1014.7 | |
| 20260905234517 | 26 | 0.0 | 0.0 | 0.00 | 0.00 | 0.00 | 79 | 1014.6 | |
| 20260905233517 | 26 | 0.0 | 0.0 | 0.00 | 0.00 | 0.00 | 78 | 1014.8 | |
| 20260905232517 | 26 | 0.0 | 0.0 | 0.00 | 0.00 | 0.00 | 77 | 1014.5 | |
| 20260905231517 | 26 | 0.0 | 0.0 | 0.00 | 0.00 | 0.00 | 75 | 1014.4 | |
| 20260905230517 | 27 | 0.0 | 0.0 | 0.00 | 0.00 | 0.00 | 75 | 1014.5 | |
| 20260905225516 | 27 | 0.0 | 0.0 | 0.00 | 0.00 | 0.00 | 74 | 1014.6 | |
| 20260905224516 | 27 | 0.0 | 0.0 | 0.00 | 0.00 | 0.00 | 72 | 1014.6 | |
| 20260905223517 | 28 | 0.0 | 1.6 | 0.00 | 0.00 | 0.00 | 69 | 1014.6 | |
| 20260905222516 | 28 | 0.0 | 0.0 | 0.00 | 0.00 | 0.00 | 69 | 1014.9 | |
| 20260905221517 | 28 | 0.0 | 1.6 | 0.00 | 0.00 | 0.00 | 67 | 1014.7 | |
| 20260905220517 | 28 | 0.0 | 1.6 | 0.00 | 0.00 | 0.00 | 67 | 1014.7 | |
| 20260905215537 | 28 | 0.0 | 1.6 | 0.00 | 0.00 | 0.00 | 67 | 1014.9 | |
| 20260905214517 | 28 | 0.0 | 1.6 | 0.00 | 0.00 | 0.00 | 66 | 1015.1 | |
| 20260905213516 | 28 | 0.0 | 3.2 | 0.00 | 0.00 | 0.00 | 65 | 1015.2 | |
| 20260905212517 | 28 | 0.0 | 1.6 | 0.00 | 0.00 | 0.00 | 66 | 1015.5 | |
| 20260905211517 | 28 | 0.0 | 1.6 | 0.00 | 0.00 | 0.00 | 66 | 1015.7 | |
| 20260905210517 | 28 | 0.0 | 1.6 | 0.00 | 0.00 | 0.00 | 67 | 1015.7 | |
| 20260905205516 | 28 | 0.0 | 0.0 | 0.00 | 0.00 | 0.00 | 69 | 1015.7 | |
| 20260905204516 | 28 | 0.0 | 0.0 | 0.00 | 0.00 | 0.00 | 69 | 1015.7 | |
| 20260905203517 | 28 | 0.0 | 0.0 | 0.00 | 0.00 | 0.00 | 69 | 1015.7 | |
| 20260905202516 | 28 | 0.0 | 1.6 | 0.00 | 0.00 | 0.00 | 69 | 1015.7 | |
| 20260905201516 | 27 | 0.0 | 3.2 | 0.00 | 0.00 | 0.00 | 72 | 1015.8 | |
| 20260905200516 | 27 | 0.0 | 1.6 | 0.00 | 0.00 | 0.00 | 75 | 1015.8 | |
| 20260905195516 | 26 | 0.0 | 1.6 | 0.00 | 0.00 | 0.00 | 77 | 1016.2 | |
| 20260905194516 | 26 | 0.0 | 3.2 | 0.00 | 0.00 | 0.00 | 77 | 1016.1 | |
| 20260905193537 | 25 | 0.0 | 0.0 | 0.00 | 0.00 | 0.00 | 75 | 1016.1 | |
| 20260905192556 | 25 | 0.0 | 0.0 | 0.00 | 0.00 | 0.00 | 75 | 1016.2 | |
| 20260905191536 | 25 | 0.0 | 0.0 | 0.00 | 0.00 | 0.00 | 75 | 1016.3 | |
| 20260905190516 | 25 | 0.0 | 3.2 | 0.00 | 0.00 | 0.00 | 73 | 1016.1 | |
| 20260905185516 | 25 | 0.0 | 0.0 | 0.00 | 0.00 | 0.00 | 78 | 1016.6 | |
| 20260905184516 | 25 | 0.0 | 0.0 | 0.00 | 0.00 | 0.00 | 76 | 1016.4 | |
| 20260905183516 | 25 | 0.0 | 0.0 | 0.00 | 0.00 | 0.00 | 74 | 1016.9 | |
| 20260905182516 | 25 | 0.0 | 0.0 | 0.00 | 0.00 | 0.00 | 72 | 1016.7 | |
| 20260905181516 | 25 | 0.0 | 3.2 | 0.00 | 0.00 | 0.00 | 71 | 1016.5 | |
| 20260905180536 | 25 | 45 | 1.6 | 6.4 | 0.00 | 0.00 | 0.00 | 71 | 1017.3 |
| 20260905175516 | 25 | 23 | 4.8 | 9.7 | 0.00 | 0.00 | 0.00 | 71 | 1017.2 |
| 20260905174516 | 26 | 338 | 1.6 | 8.0 | 0.00 | 0.00 | 0.00 | 69 | 1016.5 |
| 20260905173516 | 26 | 0.0 | 1.6 | 0.00 | 0.00 | 0.00 | 67 | 1016.5 | |
| 20260905172536 | 28 | 0.0 | 3.2 | 0.00 | 0.00 | 0.00 | 66 | 1017.1 | |
| 20260905171556 | 28 | 0.0 | 1.6 | 0.00 | 0.00 | 0.00 | 65 | 1017.7 | |
| 20260905170517 | 30 | 0.0 | 1.6 | 0.00 | 0.00 | 0.00 | 67 | 1017.6 | |
| 20260905165516 | 30 | 0.0 | 1.6 | 0.00 | 0.00 | 0.00 | 65 | 1017.4 | |
| 20260905164516 | 30 | 23 | 1.6 | 4.8 | 0.00 | 0.00 | 0.00 | 62 | 1017.4 |
| 20260905163516 | 31 | 23 | 1.6 | 6.4 | 0.00 | 0.00 | 0.00 | 61 | 1017.4 |
| 20260905162516 | 30 | 23 | 1.6 | 8.0 | 0.00 | 0.00 | 0.00 | 63 | 1017.8 |
| 20260905161516 | 30 | 23 | 3.2 | 8.0 | 0.00 | 0.00 | 0.00 | 64 | 1017.7 |
| 20260905160516 | 30 | 23 | 1.6 | 6.4 | 0.00 | 0.00 | 0.00 | 64 | 1017.9 |
| 20260905155516 | 30 | 23 | 3.2 | 9.7 | 0.00 | 0.00 | 0.00 | 64 | 1018.1 |
| 20260905154516 | 29 | 23 | 3.2 | 8.0 | 0.00 | 0.00 | 0.00 | 66 | 1018.1 |
| 20260905153516 | 28 | 45 | 1.6 | 6.4 | 0.00 | 0.00 | 0.00 | 70 | 1017.9 |
| 20260905152516 | 28 | 0.0 | 0.0 | 0.00 | 0.00 | 0.00 | 72 | 1017.8 | |
| 20260905151516 | 28 | 0.0 | 0.0 | 0.00 | 0.00 | 0.00 | 74 | 1017.9 | |
| 20260905150516 | 27 | 0.0 | 0.0 | 0.00 | 0.00 | 0.00 | 76 | 1017.8 | |
| 20260905145516 | 27 | 0.0 | 0.0 | 0.00 | 0.00 | 0.00 | 79 | 1017.8 | |
| 20260905144556 | 27 | 0.0 | 0.0 | 0.00 | 0.00 | 0.00 | 83 | 1017.8 | |
| 20260905143536 | 26 | 0.0 | 0.0 | 0.00 | 0.00 | 0.00 | 81 | 1017.8 | |
| 20260905142516 | 26 | 0.0 | 1.6 | 0.00 | 0.00 | 0.00 | 82 | 1018.0 | |
| 20260905141516 | 25 | 0.0 | 0.0 | 0.00 | 0.00 | 0.00 | 83 | 1018.0 | |
| 20260905140516 | 25 | 0.0 | 1.6 | 0.00 | 0.00 | 0.00 | 85 | 1017.9 | |
| 20260905135516 | 24 | 0.0 | 0.0 | 0.00 | 0.00 | 0.00 | 86 | 1017.9 | |
| 20260905134516 | 23 | 0.0 | 0.0 | 0.00 | 0.00 | 0.00 | 87 | 1018.0 | |
| 20260905133516 | 23 | 0.0 | 1.6 | 0.00 | 0.00 | 0.00 | 88 | 1018.1 | |
| 20260905132516 | 22 | 0.0 | 1.6 | 0.00 | 0.00 | 0.00 | 89 | 1018.2 | |
| 20260905131516 | 22 | 0.0 | 0.0 | 0.00 | 0.00 | 0.00 | 89 | 1018.3 | |
| 20260905130516 | 22 | 0.0 | 0.0 | 0.00 | 0.00 | 0.00 | 89 | 1018.3 | |
| 20260905125516 | 22 | 0.0 | 1.6 | 0.00 | 0.00 | 0.00 | 89 | 1018.3 | |
| 20260905124515 | 21 | 0.0 | 0.0 | 0.00 | 0.00 | 0.00 | 89 | 1018.3 | |
| 20260905123516 | 21 | 0.0 | 0.0 | 0.00 | 0.00 | 0.00 | 89 | 1018.3 | |
| 20260905122536 | 21 | 0.0 | 0.0 | 0.00 | 0.00 | 0.00 | 89 | 1018.3 | |
| 20260905121516 | 21 | 0.0 | 0.0 | 0.00 | 0.00 | 0.00 | 89 | 1017.9 | |
| 20260905120516 | 21 | 0.0 | 0.0 | 0.00 | 0.00 | 0.00 | 89 | 1018.0 | |
| 20260905115516 | 21 | 0.0 | 1.6 | 0.00 | 0.00 | 0.00 | 89 | 1017.9 | |
| 20260905114516 | 21 | 0.0 | 0.0 | 0.00 | 0.00 | 0.00 | 89 | 1017.8 | |
| 20260905113516 | 21 | 0.0 | 0.0 | 0.00 | 0.00 | 0.00 | 89 | 1017.8 | |
| 20260905112516 | 21 | 0.0 | 0.0 | 0.00 | 0.00 | 0.00 | 89 | 1017.8 | |
| 20260905111515 | 21 | 0.0 | 0.0 | 0.00 | 0.00 | 0.00 | 89 | 1017.5 | |
| 20260905110516 | 20 | 0.0 | 0.0 | 0.00 | 0.00 | 0.00 | 89 | 1017.3 | |
| 20260905105616 | 21 | 0.0 | 0.0 | 0.00 | 0.00 | 0.00 | 89 | 1017.3 | |
| 20260905104516 | 21 | 0.0 | 1.6 | 0.00 | 0.00 | 0.00 | 89 | 1017.3 | |
| 20260905103515 | 21 | 0.0 | 0.0 | 0.00 | 0.00 | 0.00 | 89 | 1017.1 | |
| 20260905102516 | 21 | 0.0 | 0.0 | 0.00 | 0.00 | 0.00 | 89 | 1017.3 | |
| 20260905101516 | 21 | 0.0 | 0.0 | 0.00 | 0.00 | 0.00 | 89 | 1017.3 | |
| 20260905100516 | 21 | 0.0 | 0.0 | 0.00 | 0.00 | 0.00 | 89 | 1017.0 | |
| 20260905095515 | 21 | 0.0 | 0.0 | 0.00 | 0.00 | 0.00 | 89 | 1017.3 | |
| 20260905094515 | 21 | 0.0 | 0.0 | 0.00 | 0.00 | 0.00 | 89 | 1017.2 | |
| 20260905093515 | 21 | 0.0 | 0.0 | 0.00 | 0.00 | 0.00 | 88 | 1017.2 | |
| 20260905092515 | 21 | 0.0 | 0.0 | 0.00 | 0.00 | 0.00 | 88 | 1017.4 | |
| 20260905091515 | 21 | 0.0 | 1.6 | 0.00 | 0.00 | 0.00 | 88 | 1017.5 | |
| 20260905090515 | 21 | 0.0 | 0.0 | 0.00 | 0.00 | 0.00 | 88 | 1017.4 | |
| 20260905085515 | 21 | 0.0 | 1.6 | 0.00 | 0.00 | 0.00 | 89 | 1017.6 | |
| 20260905084515 | 21 | 0.0 | 1.6 | 0.00 | 0.00 | 0.00 | 89 | 1017.7 | |
| 20260905083516 | 21 | 0.0 | 0.0 | 0.00 | 0.00 | 0.00 | 88 | 1017.6 | |
| 20260905082515 | 21 | 0.0 | 0.0 | 0.00 | 0.00 | 0.00 | 88 | 1017.7 |